[[{"header":{"parameterUnit":"m.s-1","parameterCategory":2,"la1":30.2991,"la2":30.254,"lo1":-89.0895,"lo2":-89.0444,"dy":0.0017,"dx":0.0017,"nx":28,"ny":28,"refTime":"2025-07-10T09:00:00:Z","depth":"0","parameterNumber":2,"parameterNumberName":"U-component_of_CURRENTS"},"data":[0,0,0,0,0,0,0,0,0,0,0,0,0,0,0,0,0,0,0,0,0,0,0,0,0,0,0,0,0,0,0,0,0,0,0,0,0,0,0,0,0,0,0,0,0,0,0,0,0,0,0,0,0,0,0,0,0,0,-0.179,-0.179,0,-0.1779,-0.1778,-0.1778,-0.1691,-0.1689,-0.1687,-0.1686,-0.1619,-0.1619,-0.1619,0,0,0,0,0,0,0,0,0,0,0,0,0,-0.1743,-0.1744,-0.179,-0.179,-0.179,-0.1779,-0.1778,-0.1778,-0.1691,-0.1689,-0.1687,-0.1685,-0.1619,-0.1619,-0.1619,0,0,0,0,0,0,0,0,0,0,0,0,0,-0.1748,-0.1744,-0.179,-0.1748,-0.1744,-0.1779,-0.1778,-0.1778,-0.1692,-0.1689,-0.1686,-0.1684,-0.1619,-0.1619,-0.1619,-0.1674,0,0,-0.1619,-0.1619,0,0,0,0,0,0,0,0,-0.1747,-0.1749,-0.1754,-0.1751,-0.1747,-0.1736,-0.1737,-0.1741,-0.1693,-0.1708,-0.1686,-0.1682,-0.1657,-0.1654,-0.1654,-0.1671,-0.1668,-0.1619,-0.1619,-0.1619,-0.1619,0,0,0,0,0,0,0,-0.1747,-0.1749,-0.1782,-0.1755,-0.175,-0.1732,-0.1729,-0.1738,-0.1695,-0.1707,-0.1701,-0.1706,-0.1654,-0.1655,-0.1652,-0.1667,-0.1619,-0.1619,-0.1619,-0.1619,-0.1663,-0.1664,0,0,0,0,0,0,-0.1758,-0.1749,-0.1783,-0.1782,-0.1744,-0.1735,-0.1732,-0.174,-0.1696,-0.1688,-0.1708,-0.1702,-0.1656,-0.1652,-0.1649,-0.1647,-0.1619,-0.1619,-0.1619,-0.1661,-0.1663,-0.1664,0,0,0,0,0,0,-0.1757,-0.1762,-0.1783,-0.1767,-0.1769,-0.1739,-0.1749,-0.1741,-0.1725,-0.1698,-0.1688,-0.1698,-0.1654,-0.1649,-0.1642,-0.1646,-0.1619,-0.1619,-0.166,-0.1662,-0.1663,-0.1683,0,0,0,0,0,0,-0.1756,-0.1761,-0.1766,-0.1769,-0.1771,-0.1795,-0.1751,-0.1743,-0.1735,-0.1725,-0.1687,-0.1679,-0.1651,-0.1642,-0.1642,-0.1645,-0.1619,-0.1658,-0.1661,-0.1663,-0.1681,-0.1685,-0.1689,0,0,0,0,0,-0.1754,-0.177,-0.1766,-0.177,-0.1779,-0.1796,-0.1795,-0.1762,-0.1737,-0.1736,-0.1706,-0.1679,-0.1656,-0.1643,-0.1643,-0.1646,-0.1657,-0.166,-0.1663,-0.1679,-0.1685,-0.1689,0,0,0,0,0,0,-0.1744,-0.1764,-0.1758,-0.1777,-0.1784,-0.1782,-0.1782,-0.1768,-0.1748,-0.1733,-0.1697,-0.1689,-0.1685,-0.1674,-0.1661,-0.1668,-0.1652,-0.1655,-0.1665,-0.167,-0.1674,-0.1673,-0.1619,0,0,0,0,0,-0.1751,-0.1767,-0.1782,-0.1794,-0.1803,-0.1796,-0.1797,-0.1781,-0.177,-0.1756,-0.1731,-0.1711,-0.1705,-0.169,-0.1687,-0.1695,-0.1696,-0.1698,-0.1702,-0.1705,-0.1706,-0.1698,-0.1701,-0.1673,-0.1673,-0.1673,0,0,-0.1749,-0.1764,-0.177,-0.1794,-0.1796,-0.1796,-0.1788,-0.1795,-0.1781,-0.1757,-0.1729,-0.173,-0.1714,-0.1713,-0.171,-0.1695,-0.1724,-0.1709,-0.1711,-0.171,-0.1701,-0.1703,-0.1705,-0.1675,-0.1674,-0.1674,0,0,-0.1752,-0.1771,-0.1781,-0.1787,-0.1801,-0.1802,-0.1806,-0.1808,-0.1794,-0.179,-0.1768,-0.1778,-0.1754,-0.1751,-0.1744,-0.1779,-0.1752,-0.1769,-0.1776,-0.1768,-0.177,-0.1771,-0.1811,-0.1816,-0.1761,-0.1761,-0.1761,0,-0.1745,-0.1754,-0.1786,-0.1789,-0.1777,-0.1802,-0.1788,-0.1799,-0.1792,-0.1787,-0.1777,-0.1774,-0.1775,-0.1774,-0.1784,-0.1788,-0.1782,-0.1753,-0.1771,-0.1772,-0.1773,-0.1814,-0.1818,-0.1762,-0.1762,-0.1762,-0.1762,0,-0.1744,-0.1745,-0.1753,-0.1758,-0.1759,-0.1758,-0.1773,-0.1778,-0.1772,-0.1777,-0.1786,-0.1803,-0.1794,-0.1807,-0.1803,-0.1814,-0.1811,-0.1782,-0.1753,-0.1777,-0.1819,-0.1824,-0.1764,-0.1764,-0.1763,-0.1763,0,0,-0.1729,-0.1747,-0.1742,-0.1713,-0.1733,-0.172,-0.1732,-0.1736,-0.1723,-0.1755,-0.1735,-0.1781,-0.1804,-0.1802,-0.1814,-0.1819,-0.1854,-0.1799,-0.1798,-0.183,-0.1856,-0.1694,-0.1684,-0.1802,-0.1802,-0.1802,-0.1896,0,-0.1705,-0.1687,-0.1705,-0.1659,-0.1638,-0.1657,-0.1645,-0.1657,-0.1684,-0.1684,-0.1741,-0.1739,-0.1797,-0.1789,-0.1816,-0.1834,-0.1859,-0.1833,-0.1836,-0.1838,-0.1681,-0.1681,-0.1433,-0.1478,-0.19,-0.1901,-0.1902,0,-0.1682,-0.1664,-0.1626,-0.1572,-0.1562,-0.1536,-0.151,-0.1513,-0.156,-0.1581,-0.1636,-0.1676,-0.174,-0.1753,-0.184,-0.1808,-0.1842,-0.1863,-0.1866,-0.1703,-0.168,-0.1516,-0.147,-0.1387,-0.1908,-0.1908,-0.1907,0,-0.1626,-0.1592,-0.1549,-0.1533,-0.1501,-0.1466,-0.1442,-0.1472,-0.1475,-0.1524,-0.1542,-0.1621,-0.1655,-0.1711,-0.1822,-0.1807,-0.1892,-0.1873,-0.1777,-0.177,-0.1555,-0.1524,-0.1411,-0.1914,-0.1914,-0.1913,-0.1913,0,-0.1582,-0.1535,-0.1505,-0.1475,-0.1374,-0.1382,-0.1322,-0.1328,-0.1365,-0.1381,-0.1484,-0.1526,-0.1634,-0.1717,-0.1798,-0.1813,-0.1889,-0.1777,-0.1762,-0.1558,-0.1529,-0.1441,-0.1585,-0.1917,-0.1916,-0.1915,-0.1915,0,-0.1524,-0.1529,-0.1443,-0.1379,-0.1351,-0.1266,-0.1222,-0.1207,-0.1261,-0.1291,-0.1306,-0.1446,-0.1548,-0.1673,-0.1772,-0.1759,-0.175,-0.179,-0.1569,-0.1521,-0.126,-0.1418,-0.1465,-0.1422,-0.1652,-0.1648,-0.1645,0,-0.1492,-0.1461,-0.1353,-0.1286,-0.1245,-0.1154,-0.1114,-0.1137,-0.1156,-0.1261,-0.1277,-0.1383,-0.1469,-0.1564,-0.1529,-0.1584,-0.1679,-0.1368,-0.1269,-0.1193,-0.1362,-0.149,-0.1463,-0.1041,-0.1033,-0.1027,-0.1021,0,-0.1398,-0.1367,-0.1278,-0.1175,-0.1094,-0.1031,-0.099,-0.0998,-0.1074,-0.1123,-0.1225,-0.1291,-0.1322,-0.1228,-0.1232,-0.1238,-0.1269,-0.1228,-0.119,-0.09,-0.0998,-0.0962,-0.1099,-0.0964,-0.0969,-0.0974,-0.0977,-0.0979,-0.1301,-0.1198,-0.1119,-0.1013,-0.0949,-0.0937,-0.0898,-0.0929,-0.0965,-0.1045,-0.1136,-0.1154,-0.0962,-0.0893,-0.0875,-0.0577,-0.0907,-0.0495,-0.0716,-0.0864,-0.0734,-0.0752,-0.0554,-0.0557,-0.056,-0.0563,-0.0565,0,-0.1168,-0.1088,-0.0979,-0.087,-0.0826,-0.0834,-0.0841,-0.0843,-0.0898,-0.0899,-0.0964,-0.0738,-0.053,-0.0363,-0.0023,-0.0012,-0.0062,-0.0102,-0.0209,-0.022,-0.0198,-0.0061,0.0308,0.0308,0.0307,0.0307,0.0307,0.0307,-0.1086,-0.0957,-0.0913,-0.0802,-0.0757,-0.0718,-0.0732,-0.0753,-0.0732,-0.0641,-0.0496,-0.043,-0.0176,0.0003,0.0253,0.0253,0.0102,0.0021,-0.0175,-0.0111,-0.0163,-0.0212,-0.0097,0.0257,0.0256,0.0048,0.0044,0.0042]},{"header":{"parameterUnit":"m.s-1","parameterCategory":2,"la1":30.2991,"la2":30.254,"lo1":-89.0895,"lo2":-89.0444,"dy":0.0017,"dx":0.0017,"nx":28,"ny":28,"refTime":"2025-07-10T09:00:00:Z","depth":"0","parameterNumber":3,"parameterNumberName":"V-component_of_CURRENTS"},"data":[0,0,0,0,0,0,0,0,0,0,0,0,0,0,0,0,0,0,0,0,0,0,0,0,0,0,0,0,0,0,0,0,0,0,0,0,0,0,0,0,0,0,0,0,0,0,0,0,0,0,0,0,0,0,0,0,0,0,-0.0191,-0.0191,0,-0.0198,-0.0198,-0.0198,-0.0161,-0.016,-0.0158,-0.0157,-0.0113,-0.0113,-0.0113,0,0,0,0,0,0,0,0,0,0,0,0,0,-0.0162,-0.0163,-0.0191,-0.0191,-0.0191,-0.0198,-0.0198,-0.0199,-0.0161,-0.016,-0.0158,-0.0157,-0.0113,-0.0113,-0.0113,0,0,0,0,0,0,0,0,0,0,0,0,0,-0.0173,-0.0163,-0.0191,-0.0173,-0.0171,-0.0198,-0.0198,-0.0199,-0.0161,-0.016,-0.0158,-0.0156,-0.0113,-0.0113,-0.0113,-0.0148,0,0,-0.0113,-0.0113,0,0,0,0,0,0,0,0,-0.0173,-0.0175,-0.0175,-0.0174,-0.0172,-0.0176,-0.0172,-0.0179,-0.0162,-0.0166,-0.0157,-0.0155,-0.013,-0.0129,-0.0136,-0.0146,-0.0144,-0.0113,-0.0113,-0.0113,-0.0113,0,0,0,0,0,0,0,-0.0172,-0.0174,-0.0195,-0.0175,-0.0173,-0.0169,-0.0169,-0.0173,-0.0158,-0.0166,-0.0163,-0.0162,-0.0129,-0.0136,-0.0135,-0.0143,-0.0113,-0.0113,-0.0113,-0.0113,-0.0178,-0.0179,0,0,0,0,0,0,-0.017,-0.0174,-0.0195,-0.0195,-0.0167,-0.0171,-0.0171,-0.0177,-0.0159,-0.0154,-0.0164,-0.016,-0.0137,-0.0135,-0.0133,-0.0196,-0.0113,-0.0113,-0.0112,-0.0176,-0.0178,-0.018,0,0,0,0,0,0,-0.017,-0.0173,-0.0195,-0.0183,-0.0185,-0.0173,-0.0181,-0.0178,-0.0175,-0.0158,-0.0152,-0.0162,-0.0136,-0.0133,-0.0149,-0.0193,-0.0113,-0.0112,-0.0174,-0.0176,-0.0179,-0.0308,0,0,0,0,0,0,-0.0169,-0.0173,-0.0178,-0.0183,-0.0186,-0.022,-0.0183,-0.018,-0.0178,-0.0173,-0.0155,-0.0149,-0.0134,-0.015,-0.0149,-0.0191,-0.0112,-0.0171,-0.0175,-0.0178,-0.0301,-0.0315,-0.0326,0,0,0,0,0,-0.0168,-0.0189,-0.0178,-0.0181,-0.0193,-0.0221,-0.0223,-0.0208,-0.018,-0.0195,-0.0184,-0.0149,-0.017,-0.0152,-0.0151,-0.0194,-0.017,-0.0174,-0.0178,-0.0296,-0.0312,-0.0326,0,0,0,0,0,0,-0.0183,-0.0188,-0.0175,-0.0197,-0.0209,-0.0214,-0.0225,-0.0211,-0.0215,-0.0204,-0.0178,-0.0174,-0.0204,-0.018,-0.016,-0.022,-0.0162,-0.0166,-0.0253,-0.0267,-0.028,-0.0349,-0.0112,0,0,0,0,0,-0.0189,-0.0201,-0.0208,-0.0224,-0.0232,-0.0226,-0.0232,-0.0225,-0.0228,-0.0226,-0.0216,-0.0208,-0.0224,-0.0228,-0.0231,-0.0268,-0.0271,-0.0291,-0.0304,-0.0314,-0.0369,-0.0436,-0.0461,-0.0193,-0.0193,-0.0193,0,0,-0.0197,-0.0202,-0.0207,-0.0228,-0.0232,-0.0283,-0.0226,-0.0243,-0.0295,-0.0223,-0.0279,-0.025,-0.0242,-0.0288,-0.0298,-0.0271,-0.0378,-0.032,-0.0329,-0.0379,-0.0443,-0.047,-0.0493,-0.0196,-0.0195,-0.0195,0,0,-0.0231,-0.0228,-0.0251,-0.0281,-0.0295,-0.031,-0.0315,-0.0325,-0.0336,-0.0377,-0.0347,-0.0368,-0.0361,-0.0398,-0.0407,-0.0494,-0.0439,-0.0453,-0.058,-0.0643,-0.0667,-0.0688,-0.067,-0.0689,-0.0463,-0.0463,-0.0463,0,-0.024,-0.028,-0.0265,-0.0315,-0.0368,-0.033,-0.0405,-0.042,-0.0436,-0.0479,-0.0408,-0.0467,-0.0441,-0.0552,-0.0567,-0.0532,-0.0515,-0.0524,-0.0664,-0.0685,-0.0705,-0.0682,-0.0701,-0.047,-0.0469,-0.0468,-0.0468,0,-0.0307,-0.0347,-0.0371,-0.0433,-0.0491,-0.054,-0.0582,-0.0621,-0.0613,-0.0631,-0.0706,-0.0677,-0.0725,-0.0698,-0.0655,-0.0781,-0.0702,-0.067,-0.0634,-0.0741,-0.0707,-0.0725,-0.0479,-0.0477,-0.0475,-0.0473,0,0,-0.0318,-0.0399,-0.0411,-0.049,-0.0566,-0.0636,-0.0735,-0.0837,-0.0915,-0.0905,-0.1014,-0.1028,-0.0991,-0.1003,-0.0948,-0.0985,-0.1066,-0.088,-0.088,-0.0877,-0.1141,-0.0935,-0.0932,-0.1044,-0.1049,-0.1053,-0.1041,0,-0.0378,-0.0491,-0.0537,-0.0701,-0.0782,-0.0844,-0.0956,-0.1047,-0.1075,-0.1156,-0.1154,-0.1208,-0.1113,-0.1116,-0.1155,-0.1096,-0.1127,-0.1069,-0.1028,-0.1027,-0.0845,-0.0954,-0.078,-0.0744,-0.1058,-0.1061,-0.1063,0,-0.0444,-0.052,-0.0665,-0.0867,-0.0915,-0.1023,-0.123,-0.132,-0.1418,-0.1438,-0.1497,-0.1451,-0.1526,-0.1396,-0.1428,-0.1381,-0.1293,-0.1226,-0.1224,-0.1018,-0.0858,-0.0699,-0.0764,-0.0538,-0.109,-0.1088,-0.1086,0,-0.0478,-0.0642,-0.0769,-0.0835,-0.1024,-0.1147,-0.1268,-0.1405,-0.149,-0.161,-0.1637,-0.1718,-0.171,-0.1695,-0.1528,-0.1494,-0.1499,-0.1444,-0.1185,-0.1165,-0.101,-0.0968,-0.0878,-0.1492,-0.1492,-0.1492,-0.1492,0,-0.0547,-0.0661,-0.0798,-0.0877,-0.1089,-0.1218,-0.142,-0.154,-0.1659,-0.1745,-0.1774,-0.1806,-0.1777,-0.1731,-0.1621,-0.1442,-0.159,-0.1247,-0.1182,-0.1036,-0.0998,-0.0785,-0.0746,-0.1492,-0.1492,-0.1492,-0.1492,0,-0.0568,-0.0635,-0.0815,-0.1024,-0.1099,-0.1269,-0.1499,-0.1607,-0.1721,-0.1824,-0.1857,-0.189,-0.1839,-0.175,-0.1678,-0.1512,-0.1245,-0.1285,-0.1063,-0.0972,-0.0507,-0.0483,-0.0438,-0.0309,-0.1045,-0.104,-0.1036,0,-0.059,-0.0655,-0.0893,-0.0999,-0.1102,-0.1321,-0.1437,-0.1623,-0.1707,-0.184,-0.1867,-0.1855,-0.1798,-0.1614,-0.1379,-0.1183,-0.1061,-0.0847,-0.078,-0.0489,-0.0417,-0.0429,-0.0327,-0.0604,-0.0597,-0.0591,-0.0586,0,-0.0633,-0.0697,-0.0841,-0.1018,-0.1181,-0.1357,-0.1531,-0.1598,-0.1759,-0.1816,-0.1848,-0.1819,-0.1611,-0.1315,-0.1016,-0.0861,-0.0657,-0.0714,-0.0523,-0.0173,-0.0085,0.0078,-0.0548,-0.0534,-0.0539,-0.0543,-0.0546,-0.0548,-0.066,-0.0765,-0.0896,-0.1084,-0.1233,-0.1352,-0.1456,-0.1556,-0.1655,-0.1671,-0.1723,-0.1571,-0.1195,-0.0765,-0.0593,-0.0058,-0.025,0.0134,0.011,0.0051,0.0245,-0.0212,-0.0048,-0.005,-0.0052,-0.0054,-0.0056,0,-0.0675,-0.0775,-0.0937,-0.1147,-0.1248,-0.1332,-0.147,-0.1491,-0.1519,-0.1438,-0.1413,-0.0965,-0.0524,-0.0143,0.0484,0.0756,0.0759,0.0865,0.0861,0.0904,0.0429,0.0531,0.0962,0.0962,0.0962,0.0961,0.0961,0.0961,-0.0697,-0.0815,-0.0899,-0.1078,-0.1192,-0.1285,-0.1334,-0.1313,-0.1234,-0.0959,-0.0669,-0.0495,0.0012,0.0728,0.133,0.1403,0.1532,0.1506,0.1515,0.1207,0.1136,0.1069,0.1179,0.1739,0.1739,0.2061,0.2064,0.2066]}],[{"header":{"parameterUnit":"m.s-1","parameterCategory":2,"la1":30.2991,"la2":30.254,"lo1":-89.0895,"lo2":-89.0444,"dy":0.0017,"dx":0.0017,"nx":28,"ny":28,"refTime":"2025-07-10T09:00:00:Z","depth":"2","parameterNumber":2,"parameterNumberName":"U-component_of_CURRENTS"},"data":[0,0,0,0,0,0,0,0,0,0,0,0,0,0,0,0,0,0,0,0,0,0,0,0,0,0,0,0,0,0,0,0,0,0,0,0,0,0,0,0,0,0,0,0,0,0,0,0,0,0,0,0,0,0,0,0,0,0,-0.1912,-0.1913,0,-0.2052,-0.2054,-0.2056,-0.2116,-0.2115,-0.2114,-0.2113,-0.2378,-0.2386,-0.2394,0,0,0,0,0,0,0,0,0,0,0,0,0,-0.1806,-0.1808,-0.1912,-0.1913,-0.1914,-0.2051,-0.2054,-0.2057,-0.2116,-0.2115,-0.2114,-0.2112,-0.2375,-0.2385,-0.2395,0,0,0,0,0,0,0,0,0,0,0,0,0,-0.1897,-0.1808,-0.1912,-0.1953,-0.1958,-0.2051,-0.2054,-0.2058,-0.2116,-0.2115,-0.2113,-0.2112,-0.2372,-0.2384,-0.2396,-0.2502,0,0,-0.2433,-0.2438,0,0,0,0,0,0,0,0,-0.1892,-0.1902,-0.1946,-0.1951,-0.1956,-0.2057,-0.2113,-0.2209,-0.2117,-0.2066,-0.2113,-0.2111,-0.2278,-0.2298,-0.2338,-0.2514,-0.2526,-0.2434,-0.2441,-0.2446,-0.245,0,0,0,0,0,0,0,-0.1886,-0.1897,-0.1976,-0.1947,-0.1953,-0.2002,-0.2013,-0.2133,-0.2188,-0.207,-0.2072,-0.2074,-0.2282,-0.2326,-0.2345,-0.2529,-0.2433,-0.2444,-0.2452,-0.2456,-0.2693,-0.2692,0,0,0,0,0,0,-0.1847,-0.1891,-0.1972,-0.1979,-0.191,-0.2004,-0.2017,-0.2033,-0.2184,-0.2202,-0.2076,-0.2076,-0.2306,-0.2331,-0.2354,-0.2391,-0.2446,-0.2457,-0.2464,-0.2694,-0.2693,-0.2692,0,0,0,0,0,0,-0.1845,-0.1854,-0.1966,-0.193,-0.1947,-0.2006,-0.2025,-0.2037,-0.208,-0.2185,-0.2207,-0.2104,-0.2306,-0.2338,-0.2456,-0.2405,-0.2463,-0.2474,-0.2695,-0.2693,-0.2692,-0.2527,0,0,0,0,0,0,-0.1841,-0.1853,-0.1859,-0.1928,-0.1947,-0.1995,-0.2026,-0.204,-0.2079,-0.2082,-0.2218,-0.224,-0.2307,-0.2437,-0.2467,-0.2423,-0.2483,-0.2696,-0.2694,-0.2692,-0.2533,-0.252,-0.2508,0,0,0,0,0,-0.1837,-0.1855,-0.1859,-0.1868,-0.1952,-0.1994,-0.2009,-0.2052,-0.2081,-0.209,-0.2192,-0.2236,-0.2444,-0.2449,-0.2484,-0.2441,-0.2697,-0.2695,-0.2693,-0.2539,-0.2522,-0.2508,0,0,0,0,0,0,-0.1818,-0.1864,-0.1869,-0.19,-0.1926,-0.2,-0.2023,-0.2057,-0.2149,-0.2167,-0.2271,-0.2301,-0.2367,-0.2447,-0.2448,-0.25,-0.2561,-0.2566,-0.2431,-0.2417,-0.2405,-0.241,-0.2493,0,0,0,0,0,-0.1811,-0.1832,-0.1872,-0.1891,-0.1906,-0.1968,-0.1996,-0.2024,-0.2105,-0.2143,-0.2235,-0.2327,-0.239,-0.2439,-0.252,-0.2593,-0.2664,-0.2573,-0.2561,-0.2549,-0.2576,-0.2599,-0.259,-0.2685,-0.2685,-0.2685,0,0,-0.1806,-0.1833,-0.1844,-0.1886,-0.1923,-0.1956,-0.1984,-0.2024,-0.2051,-0.2164,-0.2252,-0.2306,-0.2403,-0.2448,-0.2482,-0.251,-0.2564,-0.2547,-0.2536,-0.2571,-0.2596,-0.2586,-0.2578,-0.2683,-0.2683,-0.2684,0,0,-0.1806,-0.1832,-0.1848,-0.1875,-0.1913,-0.195,-0.1956,-0.2029,-0.2055,-0.2137,-0.2195,-0.2226,-0.2371,-0.2389,-0.2425,-0.2408,-0.2498,-0.2417,-0.2364,-0.2383,-0.2375,-0.2369,-0.2461,-0.2465,-0.2407,-0.2407,-0.2406,0,-0.1795,-0.1825,-0.1855,-0.1883,-0.1905,-0.1944,-0.1969,-0.201,-0.2107,-0.2128,-0.2143,-0.2274,-0.233,-0.2362,-0.2328,-0.2375,-0.244,-0.2405,-0.2364,-0.236,-0.2356,-0.2453,-0.2459,-0.2398,-0.2399,-0.24,-0.2401,0,-0.181,-0.1837,-0.1852,-0.1895,-0.1921,-0.1949,-0.199,-0.2022,-0.2055,-0.2087,-0.2124,-0.2185,-0.2253,-0.2234,-0.2284,-0.227,-0.2343,-0.234,-0.2394,-0.2336,-0.2443,-0.2452,-0.2387,-0.239,-0.2392,-0.2394,0,0,-0.1779,-0.1847,-0.1851,-0.1868,-0.1931,-0.1951,-0.1989,-0.2019,-0.204,-0.2079,-0.2111,-0.2129,-0.2141,-0.2183,-0.2207,-0.2208,-0.2212,-0.226,-0.2265,-0.2341,-0.2321,-0.2036,-0.2022,-0.2198,-0.2198,-0.2198,-0.2409,0,-0.1776,-0.1819,-0.1857,-0.1892,-0.1918,-0.1961,-0.1988,-0.202,-0.2049,-0.2094,-0.2099,-0.2148,-0.2126,-0.2146,-0.213,-0.2237,-0.2229,-0.2161,-0.238,-0.2389,-0.2129,-0.2017,-0.1853,-0.1994,-0.2419,-0.2421,-0.2422,0,-0.1773,-0.1804,-0.1837,-0.1885,-0.1898,-0.1923,-0.1959,-0.1986,-0.204,-0.2062,-0.2082,-0.2136,-0.2178,-0.2141,-0.2247,-0.2216,-0.2246,-0.2293,-0.2301,-0.2104,-0.2115,-0.2121,-0.1996,-0.2439,-0.2438,-0.2436,-0.2435,0,-0.1725,-0.1785,-0.1803,-0.1826,-0.189,-0.19,-0.1924,-0.197,-0.202,-0.2056,-0.2133,-0.2153,-0.2236,-0.2255,-0.2324,-0.2314,-0.2441,-0.2445,-0.2217,-0.2206,-0.2142,-0.2116,-0.2456,-0.2456,-0.2455,-0.2455,-0.2454,0,-0.1706,-0.1719,-0.1781,-0.1794,-0.1806,-0.186,-0.1878,-0.1902,-0.2001,-0.2073,-0.2116,-0.2188,-0.2265,-0.235,-0.2363,-0.231,-0.2467,-0.2195,-0.22,-0.2076,-0.2043,-0.2494,-0.2496,-0.2463,-0.2461,-0.246,-0.2458,0,-0.1649,-0.1693,-0.1719,-0.1776,-0.1785,-0.1791,-0.1879,-0.1933,-0.2007,-0.2125,-0.2169,-0.2298,-0.2338,-0.2388,-0.2458,-0.2362,-0.2341,-0.2265,-0.2128,-0.21,-0.2116,-0.2108,-0.2079,-0.207,-0.2062,-0.2056,-0.205,0,-0.1621,-0.1629,-0.1685,-0.171,-0.1735,-0.176,-0.1813,-0.1903,-0.2003,-0.2169,-0.2268,-0.2341,-0.2297,-0.228,-0.2102,-0.2015,-0.2169,-0.1839,-0.1693,-0.2049,-0.2061,-0.2064,-0.2066,-0.1629,-0.1621,-0.1614,-0.1608,0,-0.1569,-0.1592,-0.1623,-0.1663,-0.1719,-0.178,-0.1874,-0.1945,-0.2084,-0.2157,-0.2228,-0.2187,-0.2082,-0.1824,-0.1651,-0.1591,-0.1819,-0.1678,-0.2133,-0.1652,-0.1611,-0.1626,-0.1647,-0.1547,-0.1553,-0.1557,-0.1561,-0.1563,-0.1524,-0.1539,-0.1586,-0.1614,-0.1701,-0.179,-0.1767,-0.1895,-0.1951,-0.1995,-0.2046,-0.1885,-0.1804,-0.1341,-0.1224,-0.1129,-0.1242,-0.1256,-0.1286,-0.1322,-0.1132,-0.1067,-0.0877,-0.0879,-0.0881,-0.0882,-0.0884,0,-0.1468,-0.1498,-0.1537,-0.1594,-0.166,-0.1715,-0.1814,-0.1757,-0.1719,-0.1718,-0.1621,-0.1355,-0.1097,-0.1059,-0.0734,-0.0598,-0.069,-0.0643,-0.0817,-0.0874,-0.0926,-0.0725,-0.036,-0.0358,-0.0357,-0.0356,0,0,-0.1443,-0.1455,-0.1477,-0.1526,-0.1567,-0.1565,-0.1558,-0.1464,-0.1388,-0.1215,-0.1095,-0.1039,-0.0994,-0.0702,-0.0575,-0.0421,-0.0664,-0.039,-0.0804,-0.1066,-0.1118,-0.1256,-0.1001,0,0,0,0,0]},{"header":{"parameterUnit":"m.s-1","parameterCategory":2,"la1":30.2991,"la2":30.254,"lo1":-89.0895,"lo2":-89.0444,"dy":0.0017,"dx":0.0017,"nx":28,"ny":28,"refTime":"2025-07-10T09:00:00:Z","depth":"2","parameterNumber":3,"parameterNumberName":"V-component_of_CURRENTS"},"data":[0,0,0,0,0,0,0,0,0,0,0,0,0,0,0,0,0,0,0,0,0,0,0,0,0,0,0,0,0,0,0,0,0,0,0,0,0,0,0,0,0,0,0,0,0,0,0,0,0,0,0,0,0,0,0,0,0,0,-0.0131,-0.0131,0,-0.0073,-0.0073,-0.0072,-0.0002,-0.0002,-0.0001,-0.0,0.0323,0.0331,0.0339,0,0,0,0,0,0,0,0,0,0,0,0,0,-0.0142,-0.0142,-0.0131,-0.0131,-0.0131,-0.0074,-0.0072,-0.0071,-0.0003,-0.0002,-0.0001,0.0,0.0321,0.033,0.034,0,0,0,0,0,0,0,0,0,0,0,0,0,-0.0113,-0.0142,-0.0131,-0.0092,-0.0088,-0.0074,-0.0072,-0.0071,-0.0003,-0.0002,-0.0,0.0001,0.0318,0.0329,0.0341,0.0391,0,0,0.0377,0.0382,0,0,0,0,0,0,0,0,-0.0115,-0.0112,-0.0098,-0.0095,-0.009,-0.0047,0.0042,0.0096,-0.0003,-0.0031,-0.0,0.0001,0.0221,0.0241,0.025,0.0407,0.0421,0.0378,0.0385,0.039,0.0394,0,0,0,0,0,0,0,-0.0117,-0.0114,-0.0105,-0.0098,-0.0093,-0.0063,-0.0058,0.0052,0.0095,-0.0029,-0.0025,-0.0024,0.0226,0.0238,0.0259,0.0425,0.0378,0.0388,0.0396,0.04,0.0702,0.0703,0,0,0,0,0,0,-0.0134,-0.0116,-0.0107,-0.0104,-0.0104,-0.0065,-0.0058,-0.0059,0.0089,0.0109,-0.0025,-0.0021,0.0218,0.0245,0.0271,0.0337,0.039,0.0401,0.0408,0.0701,0.0703,0.0704,0,0,0,0,0,0,-0.0135,-0.0134,-0.0109,-0.0111,-0.0106,-0.0066,-0.0067,-0.0059,-0.004,0.0088,0.0114,-0.0015,0.022,0.0255,0.036,0.0351,0.0407,0.0418,0.07,0.0702,0.0703,0.0472,0,0,0,0,0,0,-0.0135,-0.0135,-0.014,-0.0113,-0.0107,-0.0107,-0.0069,-0.0059,-0.0043,-0.0037,0.0106,0.0136,0.0223,0.0341,0.0372,0.0368,0.0427,0.0699,0.0701,0.0703,0.0478,0.0465,0.0454,0,0,0,0,0,-0.0136,-0.0152,-0.014,-0.0139,-0.0116,-0.0108,-0.0102,-0.0067,-0.0044,-0.0044,0.0049,0.0132,0.0375,0.0351,0.0387,0.0386,0.0698,0.0701,0.0703,0.0484,0.0467,0.0454,0,0,0,0,0,0,-0.0159,-0.0146,-0.0132,-0.0143,-0.0129,-0.0097,-0.0095,-0.0072,-0.0005,0.0014,0.0135,0.0171,0.0257,0.0368,0.0338,0.0485,0.0555,0.0564,0.0377,0.0363,0.0351,0.0355,0.0437,0,0,0,0,0,-0.0169,-0.0176,-0.0157,-0.0166,-0.0161,-0.0128,-0.012,-0.0098,-0.0041,-0.0012,0.0081,0.02,0.0292,0.0361,0.0463,0.0547,0.0616,0.0579,0.0566,0.0555,0.0587,0.0654,0.0649,0.071,0.071,0.071,0,0,-0.018,-0.0175,-0.0178,-0.0171,-0.0154,-0.015,-0.0119,-0.0112,-0.0098,0.002,0.0079,0.0157,0.0304,0.0376,0.0429,0.0469,0.0562,0.0557,0.0545,0.0586,0.0656,0.0649,0.0643,0.0712,0.0711,0.0711,0,0,-0.0213,-0.0202,-0.0219,-0.0207,-0.0193,-0.0171,-0.0172,-0.014,-0.0115,-0.0061,0.002,0.0085,0.0246,0.032,0.0387,0.0386,0.0483,0.0431,0.0382,0.0442,0.0437,0.0433,0.0438,0.0436,0.0435,0.0434,0.0434,0,-0.0227,-0.0242,-0.0223,-0.023,-0.0218,-0.0183,-0.0186,-0.0161,-0.0099,-0.0071,-0.0054,0.0127,0.0219,0.0313,0.0296,0.0353,0.0394,0.0402,0.0419,0.0417,0.0417,0.0425,0.0426,0.0424,0.0425,0.0426,0.0427,0,-0.0264,-0.0272,-0.0281,-0.0272,-0.0256,-0.0257,-0.0219,-0.0199,-0.0167,-0.0134,-0.0056,0.0038,0.0156,0.0173,0.0232,0.0286,0.031,0.037,0.0432,0.0395,0.0407,0.0412,0.0408,0.0412,0.0415,0.0418,0,0,-0.0302,-0.0309,-0.0309,-0.0301,-0.0275,-0.0259,-0.0243,-0.021,-0.0184,-0.014,-0.0102,-0.0003,0.0038,0.0121,0.0188,0.0232,0.0206,0.0292,0.03,0.0254,0.0301,0.0375,0.0388,0.0259,0.0261,0.0262,0.0278,0,-0.0335,-0.0364,-0.0348,-0.0343,-0.0345,-0.0298,-0.0278,-0.0236,-0.0198,-0.0156,-0.0084,-0.0024,0.0024,0.0052,0.0105,0.0195,0.0225,0.0195,0.0387,0.0392,0.0428,0.0401,0.0413,0.0437,0.0284,0.0285,0.0286,0,-0.0371,-0.0383,-0.0405,-0.0367,-0.0359,-0.0342,-0.0285,-0.0262,-0.0203,-0.0178,-0.0118,-0.0064,-0.0003,0.0039,0.0167,0.0145,0.0217,0.0274,0.0277,0.0452,0.0481,0.0474,0.0454,0.0297,0.0296,0.0295,0.0294,0,-0.0402,-0.0405,-0.0422,-0.0413,-0.038,-0.036,-0.0326,-0.0268,-0.0259,-0.0201,-0.0214,-0.0096,-0.0075,0.005,0.0146,0.016,0.0278,0.0318,0.045,0.0453,0.0565,0.0577,0.0424,0.0424,0.0424,0.0424,0.0424,0,-0.0438,-0.0441,-0.0435,-0.044,-0.0416,-0.0379,-0.0347,-0.0308,-0.0285,-0.0285,-0.023,-0.0211,-0.0071,0.0003,0.0128,0.0295,0.0267,0.0451,0.0483,0.0479,0.0484,0.0475,0.0481,0.0424,0.0424,0.0424,0.0424,0,-0.047,-0.048,-0.0478,-0.0453,-0.0437,-0.0411,-0.0375,-0.0371,-0.036,-0.0371,-0.0379,-0.0317,-0.0209,-0.0081,0.0106,0.0253,0.0414,0.0481,0.0437,0.0467,0.0544,0.0538,0.0642,0.0645,0.0648,0.065,0.0652,0,-0.0492,-0.0512,-0.0487,-0.0479,-0.0465,-0.0433,-0.0429,-0.0402,-0.0425,-0.0423,-0.0451,-0.0378,-0.0287,-0.0015,0.0244,0.0472,0.045,0.0625,0.0693,0.0556,0.0576,0.0565,0.0556,0.07,0.0702,0.0704,0.0705,0,-0.0521,-0.0518,-0.051,-0.0508,-0.0497,-0.05,-0.0502,-0.0523,-0.0524,-0.0531,-0.0504,-0.0428,-0.0184,0.0126,0.0412,0.0545,0.0598,0.0674,0.0554,0.0663,0.062,0.0635,0.0623,0.0721,0.0719,0.0718,0.0717,0.0717,-0.0526,-0.0517,-0.0522,-0.051,-0.0534,-0.058,-0.057,-0.0584,-0.0589,-0.0587,-0.0511,-0.0298,-0.0097,0.0421,0.0539,0.0716,0.0762,0.0842,0.0832,0.0822,0.0846,0.0814,0.0951,0.095,0.095,0.095,0.095,0,-0.0531,-0.0531,-0.0527,-0.0536,-0.06,-0.0606,-0.0645,-0.064,-0.0623,-0.054,-0.0462,-0.0118,0.0229,0.0449,0.0799,0.094,0.0861,0.0902,0.0813,0.0802,0.0792,0.0808,0.0905,0.0904,0.0903,0.0902,0,0,-0.0527,-0.0528,-0.0526,-0.0606,-0.0644,-0.0719,-0.0739,-0.0704,-0.063,-0.05,-0.0253,-0.0033,0.0332,0.0534,0.0651,0.0818,0.0718,0.0771,0.0814,0.0678,0.0662,0.0795,0.0816,0,0,0,0,0]}],[{"header":{"parameterUnit":"m.s-1","parameterCategory":2,"la1":30.2991,"la2":30.254,"lo1":-89.0895,"lo2":-89.0444,"dy":0.0017,"dx":0.0017,"nx":28,"ny":28,"refTime":"2025-07-10T09:00:00:Z","depth":"4","parameterNumber":2,"parameterNumberName":"U-component_of_CURRENTS"},"data":[0,0,0,0,0,0,0,0,0,0,0,0,0,0,0,0,0,0,0,0,0,0,0,0,0,0,0,0,0,0,0,0,0,0,0,0,0,0,0,0,0,0,0,0,0,0,0,0,0,0,0,0,0,0,0,0,0,0,-0.1467,-0.1467,0,-0.1523,-0.1524,-0.1524,-0.1535,-0.1535,-0.1535,-0.1535,-0.1573,-0.1575,-0.1576,0,0,0,0,0,0,0,0,0,0,0,0,0,-0.1364,-0.1366,-0.1467,-0.1467,-0.1468,-0.1523,-0.1524,-0.1525,-0.1535,-0.1535,-0.1535,-0.1534,-0.1573,-0.1574,-0.1576,0,0,0,0,0,0,0,0,0,0,0,0,0,-0.1412,-0.1367,-0.1466,-0.1482,-0.1484,-0.1523,-0.1524,-0.1525,-0.1536,-0.1535,-0.1535,-0.1534,-0.1572,-0.1574,-0.1576,-0.1597,0,0,-0.1582,-0.1583,0,0,0,0,0,0,0,0,-0.1409,-0.1416,-0.1478,-0.1481,-0.1483,-0.1523,-0.1502,-0.1549,-0.1536,-0.1514,-0.1535,-0.1534,-0.1556,-0.156,-0.1569,-0.1599,-0.1601,-0.1582,-0.1584,-0.1584,-0.1585,0,0,0,0,0,0,0,-0.1406,-0.1413,-0.1487,-0.1479,-0.1482,-0.1485,-0.1491,-0.1511,-0.1535,-0.1516,-0.1517,-0.1526,-0.1557,-0.1567,-0.157,-0.1601,-0.1582,-0.1584,-0.1585,-0.1586,-0.1667,-0.1668,0,0,0,0,0,0,-0.1403,-0.141,-0.1486,-0.1489,-0.1446,-0.1487,-0.1494,-0.1509,-0.1536,-0.154,-0.1527,-0.1527,-0.1564,-0.1568,-0.1572,-0.163,-0.1584,-0.1586,-0.1587,-0.1666,-0.1667,-0.1668,0,0,0,0,0,0,-0.1401,-0.141,-0.1483,-0.1452,-0.1461,-0.1489,-0.1507,-0.1511,-0.1539,-0.1544,-0.1548,-0.1552,-0.1564,-0.1569,-0.1595,-0.163,-0.1587,-0.1589,-0.1665,-0.1666,-0.1667,-0.1726,0,0,0,0,0,0,-0.1398,-0.1409,-0.1428,-0.1452,-0.1463,-0.1512,-0.1508,-0.1512,-0.1545,-0.1546,-0.1567,-0.1569,-0.1564,-0.1592,-0.1597,-0.1632,-0.159,-0.1663,-0.1665,-0.1667,-0.1723,-0.173,-0.1735,0,0,0,0,0,-0.1394,-0.1417,-0.1429,-0.1439,-0.1486,-0.1513,-0.1519,-0.1535,-0.1546,-0.1559,-0.1571,-0.157,-0.1607,-0.1594,-0.16,-0.1637,-0.1663,-0.1665,-0.1667,-0.1721,-0.1728,-0.1735,0,0,0,0,0,0,-0.1382,-0.1422,-0.1435,-0.1469,-0.1493,-0.1515,-0.1537,-0.1551,-0.1573,-0.1582,-0.1583,-0.1586,-0.1622,-0.1619,-0.1605,-0.1663,-0.1635,-0.1638,-0.1674,-0.1681,-0.1687,-0.1677,-0.1592,0,0,0,0,0,-0.139,-0.1419,-0.145,-0.1479,-0.1495,-0.1523,-0.1541,-0.1555,-0.1575,-0.1586,-0.1601,-0.1617,-0.1634,-0.1649,-0.166,-0.1696,-0.1667,-0.1722,-0.1728,-0.1733,-0.1727,-0.1701,-0.1704,-0.1675,-0.1675,-0.1675,0,0,-0.1395,-0.142,-0.1438,-0.1479,-0.1503,-0.1534,-0.1533,-0.1569,-0.1598,-0.1587,-0.1635,-0.1642,-0.1647,-0.1681,-0.1698,-0.1686,-0.1729,-0.1736,-0.174,-0.1731,-0.1704,-0.1706,-0.1709,-0.1677,-0.1676,-0.1676,0,0,-0.1408,-0.1443,-0.1469,-0.1496,-0.1537,-0.1556,-0.1572,-0.1608,-0.1629,-0.1672,-0.167,-0.169,-0.1728,-0.173,-0.1738,-0.1784,-0.1759,-0.18,-0.1828,-0.1804,-0.1806,-0.1807,-0.1784,-0.1782,-0.1806,-0.1806,-0.1806,0,-0.1412,-0.1451,-0.1479,-0.1511,-0.1538,-0.1569,-0.1601,-0.1632,-0.1672,-0.1686,-0.1693,-0.1736,-0.1748,-0.1774,-0.1794,-0.1799,-0.1778,-0.1803,-0.1811,-0.1812,-0.1812,-0.1787,-0.1785,-0.1809,-0.1809,-0.1808,-0.1808,0,-0.1437,-0.1479,-0.1499,-0.1551,-0.1582,-0.1617,-0.1659,-0.1694,-0.1728,-0.1748,-0.1787,-0.1797,-0.181,-0.1833,-0.1834,-0.1851,-0.1834,-0.1819,-0.1791,-0.1818,-0.1791,-0.1787,-0.1813,-0.1812,-0.1811,-0.1811,0,0,-0.1413,-0.15,-0.1509,-0.154,-0.1609,-0.1631,-0.1689,-0.1733,-0.1757,-0.1805,-0.1822,-0.1871,-0.1867,-0.1873,-0.1877,-0.1874,-0.1871,-0.1857,-0.1854,-0.1831,-0.1818,-0.1701,-0.1686,-0.1858,-0.1857,-0.1857,-0.1802,0,-0.1423,-0.1487,-0.1528,-0.159,-0.1626,-0.1676,-0.1718,-0.1763,-0.1798,-0.1822,-0.1846,-0.1861,-0.1886,-0.1886,-0.1893,-0.1868,-0.1863,-0.1887,-0.1797,-0.1795,-0.1684,-0.1677,-0.1855,-0.1799,-0.1798,-0.1798,-0.1797,0,-0.1426,-0.1471,-0.1535,-0.1607,-0.1626,-0.1668,-0.1725,-0.1763,-0.1806,-0.1826,-0.1851,-0.1858,-0.1873,-0.1876,-0.186,-0.1875,-0.1853,-0.1838,-0.1834,-0.1697,-0.1669,-0.1764,-0.179,-0.179,-0.1791,-0.1791,-0.1792,0,-0.1382,-0.147,-0.1521,-0.1551,-0.1639,-0.1672,-0.1711,-0.1764,-0.1782,-0.1813,-0.1811,-0.184,-0.183,-0.1824,-0.1822,-0.183,-0.1789,-0.1784,-0.166,-0.1652,-0.175,-0.1749,-0.1757,-0.1757,-0.1757,-0.1757,-0.1757,0,-0.1362,-0.1404,-0.1509,-0.1538,-0.1582,-0.1649,-0.1683,-0.172,-0.1755,-0.1741,-0.1797,-0.1766,-0.1814,-0.1804,-0.1805,-0.1719,-0.1771,-0.165,-0.1621,-0.1779,-0.1782,-0.1748,-0.1748,-0.1755,-0.1755,-0.1756,-0.1756,0,-0.1303,-0.1376,-0.144,-0.1541,-0.1566,-0.1596,-0.1657,-0.1673,-0.1707,-0.1684,-0.1684,-0.1707,-0.1667,-0.1717,-0.1692,-0.1661,-0.1614,-0.1575,-0.1747,-0.1732,-0.1497,-0.1501,-0.1399,-0.1394,-0.139,-0.1386,-0.1384,0,-0.1275,-0.1307,-0.1425,-0.1459,-0.1508,-0.1557,-0.1584,-0.1639,-0.1636,-0.1615,-0.1583,-0.1564,-0.1566,-0.1434,-0.1512,-0.1498,-0.1493,-0.1469,-0.1477,-0.1474,-0.1457,-0.1467,-0.1476,-0.1377,-0.1376,-0.1375,-0.1374,0,-0.1221,-0.1281,-0.1339,-0.1399,-0.1446,-0.1476,-0.1507,-0.1482,-0.1503,-0.1549,-0.1399,-0.1352,-0.1307,-0.1305,-0.1322,-0.1317,-0.1483,-0.1427,-0.1435,-0.1442,-0.1446,-0.1436,-0.145,-0.136,-0.1362,-0.1363,-0.1364,0,-0.118,-0.1209,-0.1288,-0.1323,-0.1379,-0.1364,-0.1393,-0.1348,-0.1332,-0.1301,-0.124,-0.1219,-0.1245,-0.1208,-0.1218,-0.1213,-0.1189,-0.1158,-0.118,-0.1197,-0.1166,-0.1145,-0.0921,0,0,0,0,0,-0.1132,-0.1153,-0.1196,-0.1228,-0.1277,-0.1293,-0.1327,-0.1351,-0.1354,-0.1199,-0.1203,-0.1136,-0.1071,-0.1086,-0.1041,-0.1188,-0.125,-0.1135,-0.1241,-0.1282,-0.1298,-0.1287,0,0,0,0,0,0,-0.1101,-0.1152,-0.1168,-0.1132,-0.1128,-0.1151,-0.1165,-0.1176,-0.1087,-0.1089,-0.1061,-0.1063,-0.1047,-0.1069,-0.101,-0.1024,-0.1066,-0.1149,-0.1145,-0.1273,-0.1287,-0.13,-0.1295,0,0,0,0,0]},{"header":{"parameterUnit":"m.s-1","parameterCategory":2,"la1":30.2991,"la2":30.254,"lo1":-89.0895,"lo2":-89.0444,"dy":0.0017,"dx":0.0017,"nx":28,"ny":28,"refTime":"2025-07-10T09:00:00:Z","depth":"4","parameterNumber":3,"parameterNumberName":"V-component_of_CURRENTS"},"data":[0,0,0,0,0,0,0,0,0,0,0,0,0,0,0,0,0,0,0,0,0,0,0,0,0,0,0,0,0,0,0,0,0,0,0,0,0,0,0,0,0,0,0,0,0,0,0,0,0,0,0,0,0,0,0,0,0,0,-0.0111,-0.0111,0,-0.0094,-0.0093,-0.0093,-0.0061,-0.0061,-0.006,-0.0059,-0.0009,-0.0008,-0.0007,0,0,0,0,0,0,0,0,0,0,0,0,0,-0.0112,-0.0112,-0.0111,-0.0111,-0.0111,-0.0094,-0.0093,-0.0093,-0.0061,-0.0061,-0.006,-0.0059,-0.0009,-0.0008,-0.0007,0,0,0,0,0,0,0,0,0,0,0,0,0,-0.0104,-0.0112,-0.0112,-0.0093,-0.0092,-0.0094,-0.0093,-0.0093,-0.0061,-0.0061,-0.006,-0.0059,-0.0009,-0.0008,-0.0007,-0.0016,0,0,-0.0003,-0.0002,0,0,0,0,0,0,0,0,-0.0105,-0.0104,-0.0096,-0.0095,-0.0093,-0.0079,-0.0075,-0.0066,-0.0062,-0.0072,-0.0059,-0.0058,-0.003,-0.0027,-0.0025,-0.0014,-0.0012,-0.0003,-0.0002,-0.0002,-0.0001,0,0,0,0,0,0,0,-0.0105,-0.0105,-0.0104,-0.0096,-0.0094,-0.0084,-0.0082,-0.0073,-0.0055,-0.0071,-0.0069,-0.0068,-0.0029,-0.0027,-0.0024,-0.0011,-0.0003,-0.0002,-0.0001,-0.0001,0.0028,0.0028,0,0,0,0,0,0,-0.011,-0.0106,-0.0105,-0.0104,-0.0097,-0.0085,-0.0083,-0.0084,-0.0056,-0.0051,-0.0069,-0.0067,-0.0029,-0.0025,-0.0022,0.0006,-0.0002,-0.0,0.0,0.0028,0.0028,0.0028,0,0,0,0,0,0,-0.011,-0.011,-0.0105,-0.0104,-0.0103,-0.0086,-0.0088,-0.0084,-0.0079,-0.0055,-0.0049,-0.0067,-0.0028,-0.0024,-0.0016,0.0007,0.0,0.0001,0.0028,0.0028,0.0028,0.0037,0,0,0,0,0,0,-0.011,-0.011,-0.0114,-0.0105,-0.0103,-0.011,-0.0088,-0.0084,-0.008,-0.0077,-0.0051,-0.0046,-0.0027,-0.0018,-0.0015,0.0008,0.0002,0.0028,0.0028,0.0028,0.0037,0.0038,0.0038,0,0,0,0,0,-0.011,-0.0124,-0.0114,-0.0114,-0.0109,-0.0111,-0.0109,-0.0094,-0.0081,-0.0085,-0.0066,-0.0046,-0.0014,-0.0018,-0.0014,0.0011,0.0028,0.0028,0.0028,0.0037,0.0038,0.0038,0,0,0,0,0,0,-0.0128,-0.0121,-0.0111,-0.0122,-0.0116,-0.0105,-0.0109,-0.0097,-0.0087,-0.0082,-0.0055,-0.0049,-0.0032,-0.0021,-0.0025,0.0017,0.0014,0.0015,0.0019,0.002,0.002,0.0031,0.0003,0,0,0,0,0,-0.0133,-0.014,-0.013,-0.0138,-0.0137,-0.0122,-0.0121,-0.0111,-0.01,-0.0095,-0.0077,-0.0054,-0.003,-0.0015,-0.0003,0.0015,0.0065,0.0035,0.0035,0.0036,0.0046,0.0146,0.0158,0.0029,0.0029,0.0029,0,0,-0.0143,-0.014,-0.0143,-0.0142,-0.0136,-0.0134,-0.012,-0.0121,-0.011,-0.0091,-0.0077,-0.0059,-0.0029,-0.0006,0.0005,0.0009,0.0096,0.0036,0.0036,0.0046,0.0148,0.0161,0.0172,0.0029,0.0029,0.0029,0,0,-0.0167,-0.0161,-0.0174,-0.0168,-0.0162,-0.015,-0.0151,-0.0141,-0.0126,-0.0119,-0.009,-0.0056,-0.0043,0.0004,0.0027,0.0037,0.0089,0.0033,0.0057,0.0154,0.0166,0.0178,0.0253,0.0271,0.0043,0.0043,0.0043,0,-0.0178,-0.0187,-0.0179,-0.0184,-0.0174,-0.0156,-0.0157,-0.0143,-0.0131,-0.0109,-0.0117,-0.0049,-0.0027,0.0043,0.0046,0.0045,0.0094,0.0054,0.0159,0.0171,0.0183,0.0257,0.0277,0.0043,0.0043,0.0043,0.0043,0,-0.0206,-0.0209,-0.0216,-0.0208,-0.0198,-0.0199,-0.0173,-0.0162,-0.0144,-0.0119,-0.0067,-0.0031,0.0019,0.0033,0.004,0.0135,0.014,0.0144,0.0163,0.0197,0.0272,0.0293,0.0044,0.0044,0.0044,0.0044,0,0,-0.0234,-0.0236,-0.0236,-0.0224,-0.0206,-0.0196,-0.0177,-0.0142,-0.0111,-0.0086,-0.0033,0.002,0.0048,0.0076,0.0108,0.019,0.031,0.0197,0.0202,0.0282,0.0516,0.0409,0.0421,0.0335,0.0338,0.0341,0.0534,0,-0.0253,-0.0268,-0.0257,-0.0245,-0.0241,-0.0206,-0.0182,-0.0144,-0.0111,-0.0062,0.0009,0.0056,0.0064,0.0092,0.018,0.0265,0.0365,0.0257,0.0461,0.0467,0.0378,0.0442,0.0353,0.0549,0.0554,0.0558,0.056,0,-0.0277,-0.0278,-0.0287,-0.0244,-0.0236,-0.0225,-0.0162,-0.014,-0.0067,-0.004,0.0031,0.0073,0.0185,0.0185,0.0392,0.0318,0.0422,0.0498,0.0508,0.0421,0.0399,0.0509,0.0598,0.0595,0.0593,0.059,0.0588,0,-0.0293,-0.0285,-0.0289,-0.0279,-0.0244,-0.0226,-0.0195,-0.0134,-0.0109,-0.0024,-0.0004,0.0135,0.0185,0.0348,0.0467,0.0448,0.0692,0.0692,0.0709,0.0703,0.0738,0.0724,0.0876,0.0876,0.0876,0.0875,0.0875,0,-0.0309,-0.0306,-0.0298,-0.0298,-0.0271,-0.0236,-0.02,-0.0157,-0.0103,-0.008,0.0005,0.0044,0.0226,0.0359,0.0501,0.0648,0.073,0.0732,0.0754,0.0733,0.0717,0.0753,0.0737,0.0882,0.0881,0.0879,0.0878,0,-0.0329,-0.0334,-0.0326,-0.0298,-0.0287,-0.0264,-0.0221,-0.0201,-0.0153,-0.0123,-0.0103,-0.0,0.0156,0.0342,0.0595,0.0656,0.0836,0.0879,0.0835,0.0849,0.0783,0.0764,0.0938,0.0936,0.0934,0.0933,0.0932,0,-0.0341,-0.0351,-0.0334,-0.0332,-0.0323,-0.0293,-0.0284,-0.0231,-0.0223,-0.0166,-0.0159,-0.0024,0.0059,0.0356,0.0533,0.0818,0.0835,0.0919,0.0863,0.0789,0.0795,0.0779,0.0763,0.0929,0.0929,0.0928,0.0928,0,-0.0355,-0.0362,-0.0355,-0.036,-0.0355,-0.0344,-0.033,-0.0328,-0.0291,-0.0252,-0.0188,-0.0062,0.0099,0.0318,0.0523,0.072,0.0857,0.0903,0.0908,0.0856,0.0781,0.0784,0.077,0.0922,0.0923,0.0924,0.0924,0,-0.0364,-0.0362,-0.0374,-0.0367,-0.0382,-0.0403,-0.0377,-0.0357,-0.0331,-0.0272,-0.0256,-0.0078,0.0036,0.0267,0.0459,0.063,0.0665,0.0697,0.0714,0.0722,0.0569,0.0436,0.0513,0,0,0,0,0,-0.0367,-0.0375,-0.0378,-0.0385,-0.0415,-0.0423,-0.042,-0.04,-0.0375,-0.0334,-0.0288,-0.0134,0.01,0.021,0.0371,0.0415,0.0683,0.0599,0.0727,0.089,0.0897,0.074,0,0,0,0,0,0,-0.0368,-0.0383,-0.038,-0.0422,-0.0442,-0.0472,-0.0477,-0.0455,-0.0409,-0.0362,-0.0208,-0.0144,0.0124,0.0021,0.0361,0.0407,0.0493,0.0727,0.0729,0.0886,0.0892,0.0898,0.0739,0,0,0,0,0]}]]